Regional Weather Roundup
Issued by NWS Cleveland, OH

Home | Current Version | Previous Version | Graphics & Text | Print | Product List | Glossary On
Versions: 1 2 3 4 5 6 7 8 9 10 11 12 13 14 15 16 17 18 19 20 21 22 23 24 25 26 27 28 29 30 31 32 33 34 35 36 37 38 39 40 41 42 43 44 45 46 47 48 49 50
000
ASUS41 KCLE 302102
RWRCLE
OHIO REGIONAL WEATHER ROUNDUP
NATIONAL WEATHER SERVICE CLEVELAND, OH
500 PM EDT MON MAY 30 2016

NOTE: "FAIR" INDICATES FEW OR NO CLOUDS BELOW 12,000 FEET WITH NO
SIGNIFICANT WEATHER AND/OR OBSTRUCTIONS TO VISIBILITY.

OHZ001>008-015>018-024>027-034-035-043-044-302200-
   NORTHWEST OHIO

CITY           SKY/WX    TMP DP  RH WIND       PRES   REMARKS
DEFIANCE       SUNNY     85  52  32 NW5       29.97F
FINDLAY        MOSUNNY   84  50  30 W7        29.97F
TOLEDO EXPRESS MOSUNNY   86  47  25 W7G18     29.96F
TOLEDO EXEC    SUNNY     87  49  26 NW12G20   29.96F
LIMA           MOSUNNY   85  52  32 NW8       29.99F
$$

OHZ009>014-019>023-028>033-038-089-302200-
   NORTHEAST OHIO

CITY           SKY/WX    TMP DP  RH WIND       PRES   REMARKS
CLE-HOPKINS    MOSUNNY   82  52  35 N12       30.00F
CLE-LAKEFRONT  SUNNY     78  60  53 N3        29.98F
CUY CO. ARPT   MOSUNNY   81  55  41 W14       30.01F
LORAIN-ELYRIA  SUNNY     82  54  37 N10       29.99F
ASHTABULA      SUNNY     79  56  45 W8        30.00F
AKRON-CANTON   MOSUNNY   84  57  39 VRB5      29.99F
WOOSTER        MOSUNNY   83  55  38 N8        29.99F
MANSFIELD      MOSUNNY   83  56  39 W8        30.00F
YOUNGSTOWN     PTSUNNY   82  54  37 NW9       29.99F
$$

OHZ042-051>053-060>062-070>072-077>081-302200-
  SOUTHWEST OHIO

CITY           SKY/WX    TMP DP  RH WIND       PRES   REMARKS
CINC-COVINGTON MOSUNNY   85  54  34 NW7       30.00F
CINC-LUNKEN    MOSUNNY   82  58  43 N7        29.99F
HAMILTON       MOSUNNY   88  55  32 N9        30.00F
DAYTON         MOSUNNY   85  54  34 NW9       30.01F
WRIGHT-PAT AFB NOT AVBL
DAYTON GENERAL SUNNY     86  54  33 N9        30.00F
WILMINGTON     SUNNY     84  56  38 N8        30.01F
$$

OHZ036-037-039>041-045>050-054>059-063>069-073>076-082>088-302200-
  CENTRAL AND SOUTHEAST OHIO

CITY           SKY/WX    TMP DP  RH WIND       PRES   REMARKS
COLUMBUS       MOSUNNY   84  57  39 NW8G16    29.97F
OSU AIRPORT    SUNNY     84  56  38 CALM      29.99F
BOLTON FIELD   PTSUNNY  N/A N/A N/A N6        29.99F
RICKENBACK AFB NOT AVBL
NEWARK         MOSUNNY   85  55  35 NW7       29.98F
MARION         SUNNY     84  50  30 N9        29.99F
LANCASTER      MOSUNNY   84  57  39 NW7       29.99F
ZANESVILLE     MOSUNNY   86  57  37 VRB6      29.98F
NEW PHILLY     PTSUNNY   87  54  32 N8        29.98F
$$




USA.gov is the U.S. government's official web portal to all federal, state and local government web resources and services.